KC2EXG-9 Weather Reports


time (UTC)temp
F
wind
direction
speed
knots
gust
knots
rain 1hr
in
rain 24hr
in
rain mn
in
humidity
%
barometer
mb
20260507060015 41 0.0 0.0 0.00 0.65 0.01 93 1012.9
20260507055016 41 0.0 0.0 0.00 0.66 0.01 93 1013.1
20260507054016 41 0.0 0.0 0.00 0.68 0.01 93 1013.1
20260507053016 41 0.0 0.0 0.00 0.69 0.01 93 1013.2
20260507052016 41 0.0 0.0 0.00 0.71 0.01 93 1013.3
20260507051016 41 0.0 0.0 0.01 0.72 0.01 93 1013.2
20260507050016 41 0.0 0.0 0.01 0.74 0.01 94 1013.5
20260507045016 41 0.0 0.0 0.01 0.75 0.01 94 1013.4
20260507044015 42 225 0.9 1.7 0.01 0.77 0.01 94 1013.3
20260507043015 42 0.0 0.0 0.01 0.77 0.01 94 1013.3
20260507042015 42 0.0 0.0 0.01 0.78 0.01 94 1013.2
20260507041016 42 0.0 0.9 0.00 0.78 0.00 94 1013.1
20260507040016 42 0.0 0.9 0.00 0.79 0.79 94 1013.1
20260507035016 42 0.0 0.9 0.00 0.79 0.79 94 1013.0
20260507034017 43 0.0 0.9 0.00 0.81 0.79 94 1013.1
20260507033017 43 0.0 0.9 0.00 0.82 0.79 94 1013.2
20260507032057 43 0.0 0.0 0.00 0.83 0.79 94 1013.1
20260507031017 43 0.0 0.9 0.01 0.83 0.79 94 1013.0
20260507030037 43 0.0 0.0 0.01 0.83 0.79 94 1013.0
20260507025017 43 0.0 0.0 0.01 0.83 0.79 94 1012.9
20260507024018 43 0.0 0.9 0.01 0.83 0.79 94 1012.9
20260507023017 43 0.0 0.9 0.02 0.84 0.79 94 1012.9
20260507022016 43 0.0 0.0 0.02 0.84 0.79 94 1012.8
20260507021036 43 0.0 0.0 0.01 0.83 0.78 94 1013.0
20260507020016 43 0.0 0.0 0.02 0.84 0.78 94 1013.0
20260507015016 43 0.0 0.0 0.02 0.85 0.78 94 1012.9
20260507014016 43 0.0 0.9 0.02 0.86 0.78 94 1012.8
20260507013016 43 0.0 0.9 0.02 0.86 0.77 93 1012.7
20260507012016 43 0.0 0.9 0.02 0.87 0.77 93 1013.0
20260507010016 43 338 1.7 2.6 0.02 0.86 0.76 93 1012.7
20260507005016 44 23 1.7 2.6 0.03 0.86 0.76 93 1012.6
20260507004016 44 0 1.7 4.3 0.03 0.87 0.76 93 1012.3
20260507003037 44 23 0.9 1.7 0.03 0.87 0.75 93 1011.7
20260507002016 44 45 0.9 1.7 0.03 0.87 0.75 93 1011.7
20260507001016 44 68 1.7 2.6 0.03 0.86 0.74 92 1011.7
20260507000016 45 315 1.7 3.5 0.03 0.87 0.74 92 1011.9
20260506235016 47 0 1.7 3.5 0.02 0.86 0.73 92 1011.6
20260506234016 47 0.0 0.0 0.02 0.87 0.73 92 1011.3
20260506233036 47 0.0 0.0 0.01 0.87 0.72 91 1011.1
20260506232036 47 0.0 0.0 0.01 0.88 0.72 90 1011.0
20260506231016 48 0.0 0.0 0.00 0.89 0.71 89 1010.9
20260506230016 48 0.0 0.9 0.00 0.91 0.71 88 1010.8
20260506225016 48 0.0 1.7 0.00 0.92 0.71 87 1010.6
20260506224016 48 0.0 0.0 0.00 0.93 0.71 85 1010.6
20260506223016 49 0.0 0.0 0.00 0.93 0.71 85 1010.6
20260506222036 49 0.0 0.9 0.00 0.94 0.71 85 1010.4
20260506221016 49 0.0 0.9 0.00 0.94 0.71 85 1010.5
20260506220016 49 0.0 0.0 0.00 0.94 0.71 86 1010.4
20260506215016 49 90 0.9 2.6 0.00 0.94 0.71 86 1010.2
20260506214016 49 135 0.9 1.7 0.00 0.94 0.71 85 1010.3
20260506213016 49 0.0 0.9 0.00 0.94 0.71 85 1010.3
20260506212036 49 135 0.9 1.7 0.00 0.94 0.71 83 1010.3
20260506211016 49 0.0 0.9 0.00 0.94 0.71 83 1010.4
20260506210015 49 0.0 0.0 0.00 0.94 0.71 83 1010.3
20260506205016 49 135 0.9 1.7 0.00 0.94 0.71 84 1010.3
20260506204016 48 0.0 0.9 0.00 0.94 0.71 85 1010.4
20260506203016 49 0.0 1.7 0.00 0.94 0.71 85 1010.4
20260506202015 48 135 0.9 1.7 0.00 0.94 0.71 85 1010.3
20260506201016 48 113 1.7 2.6 0.00 0.94 0.71 85 1010.2
20260506200016 48 68 0.9 0.9 0.00 0.94 0.71 85 1010.3
20260506195016 48 0.0 1.7 0.00 0.94 0.71 85 1010.4
20260506194015 47 68 1.7 2.6 0.00 0.94 0.71 86 1010.4
20260506193016 47 0.0 0.0 0.00 0.94 0.71 86 1010.4
20260506192016 48 0.0 0.0 0.00 0.94 0.71 88 1010.2
20260506191036 47 68 0.9 1.7 0.00 0.94 0.71 89 1010.3
20260506190015 47 68 0.9 1.7 0.00 0.94 0.71 88 1010.4
20260506185035 47 68 1.7 2.6 0.00 0.94 0.71 90 1010.5
20260506184015 46 68 0.9 4.3 0.00 0.94 0.71 91 1010.4
20260506183015 46 90 0.9 2.6 0.00 0.94 0.71 91 1010.4
20260506182015 46 68 1.7 6.1 0.00 0.94 0.71 92 1010.3
20260506181056 45 23 1.7 2.6 0.00 0.94 0.71 92 1010.6
20260506180016 46 68 1.7 2.6 0.00 0.94 0.71 92 1010.7
20260506175015 46 68 0.9 1.7 0.00 0.94 0.71 93 1010.6
20260506174015 46 45 0.9 1.7 0.00 0.94 0.71 93 1010.3
20260506173015 46 68 1.7 2.6 0.00 0.94 0.71 93 1010.0
20260506172015 46 338 0.9 2.6 0.00 0.94 0.71 94 1010.1
20260506171015 46 68 1.7 3.5 0.00 0.94 0.71 93 1009.7
20260506170016 46 0.0 1.7 0.00 0.94 0.71 94 1009.7
20260506165035 46 23 0.9 2.6 0.00 0.94 0.71 94 1009.9
20260506164015 46 68 0.9 1.7 0.00 0.94 0.71 95 1009.8
20260506163015 46 68 0.9 1.7 0.00 0.94 0.71 94 1009.8
20260506162015 46 23 0.9 2.6 0.00 0.94 0.71 95 1009.7
20260506161015 45 0.0 0.9 0.00 0.94 0.71 95 1009.8
20260506160016 45 68 2.6 4.3 0.00 0.94 0.71 95 1009.7
20260506155015 45 68 1.7 3.5 0.00 0.94 0.71 95 1009.9
20260506154015 45 68 0.9 1.7 0.00 0.94 0.71 95 1009.9
20260506153015 45 45 1.7 3.5 0.00 0.94 0.71 95 1009.8
20260506152015 45 45 2.6 3.5 0.00 0.94 0.71 95 1009.6
20260506151055 45 45 2.6 4.3 0.01 0.94 0.71 95 1009.6
20260506150015 45 68 1.7 2.6 0.01 0.94 0.71 95 1009.7
20260506145015 45 338 1.7 2.6 0.01 0.94 0.71 95 1009.7
20260506144015 44 45 2.6 4.3 0.01 0.94 0.71 95 1009.5
20260506143055 44 45 0.9 3.5 0.02 0.94 0.71 95 1009.4
20260506142015 45 68 1.7 4.3 0.02 0.94 0.71 96 1009.4
20260506141015 45 45 0.9 1.7 0.01 0.93 0.70 95 1009.1
20260506140014 44 0.0 0.9 0.02 0.93 0.70 95 1009.1
20260506135014 44 68 0.9 1.7 0.02 0.93 0.70 95 1009.3
20260506134015 44 0.0 0.0 0.02 0.93 0.70 95 1009.3
20260506133017 44 23 0.9 2.6 0.02 0.92 0.69 95 1009.1
20260506132017 44 68 0.9 0.9 0.02 0.92 0.69 95 1009.0
20260506131017 44 0.0 1.7 0.03 0.92 0.69 95 1009.0
20260506130017 44 68 0.9 1.7 0.03 0.91 0.68 95 1008.9
20260506125017 44 90 1.7 3.5 0.04 0.91 0.68 95 1008.9
20260506124017 44 90 1.7 3.5 0.04 0.91 0.68 95 1008.8
20260506123016 43 68 1.7 5.2 0.04 0.90 0.67 95 1009.1
20260506122016 44 0.0 0.0 0.04 0.90 0.67 95 1008.9
20260506121016 44 0.0 0.0 0.04 0.89 0.66 95 1009.1
20260506120017 44 90 0.9 1.7 0.03 0.88 0.65 95 1009.1
20260506115016 44 0.0 0.9 0.03 0.87 0.64 95 1009.2
20260506114017 44 0.0 1.7 0.04 0.87 0.64 95 1009.1
20260506113036 43 90 2.6 4.3 0.04 0.86 0.63 95 1008.8
20260506112016 44 90 1.7 3.5 0.05 0.86 0.63 95 1008.7
20260506111017 44 45 3.5 5.2 0.06 0.85 0.62 95 1008.5
20260506110016 44 68 1.7 4.3 0.07 0.85 0.62 95 1008.6
20260506105016 44 68 3.5 6.1 0.07 0.84 0.61 95 1008.6
20260506104016 44 90 2.6 5.2 0.07 0.83 0.60 95 1008.8
20260506103036 44 68 2.6 6.1 0.07 0.82 0.59 96 1008.9
20260506102016 44 90 0.9 2.6 0.07 0.81 0.58 95 1009.0
20260506101016 44 68 0.9 1.7 0.05 0.79 0.56 95 1009.1
20260506100016 44 68 2.6 5.2 0.05 0.78 0.55 95 1009.2
20260506095016 45 68 1.7 4.3 0.05 0.77 0.54 95 1009.0
20260506094016 45 68 0.9 1.7 0.05 0.76 0.53 95 1009.2
20260506093016 45 90 0.9 1.7 0.06 0.75 0.52 95 1009.1
20260506092036 45 68 1.7 2.6 0.06 0.74 0.51 95 1009.1
20260506091016 45 68 0.9 1.7 0.08 0.74 0.51 95 1008.8
20260506090016 45 90 0.9 1.7 0.09 0.73 0.50 95 1008.5
20260506085016 45 68 1.7 2.6 0.10 0.72 0.49 95 1009.0
20260506084016 45 68 2.6 4.3 0.11 0.71 0.48 95 1008.9
20260506083016 45 68 2.6 6.1 0.11 0.69 0.46 95 1009.4
20260506082016 45 0.0 0.9 0.12 0.68 0.45 95 1009.3
20260506081016 45 90 1.7 2.6 0.12 0.66 0.43 95 1008.8
20260506073016 45 0.0 0.9 0.12 0.58 0.35 95 1009.4
20260506072036 46 0.0 1.7 0.13 0.56 0.33 95 1009.1
20260506071016 46 45 2.6 4.3 0.14 0.54 0.31 95 1008.8
20260506062016 47 45 1.7 4.3 0.11 0.44 0.20 95 1009.4
20260506061056 47 68 3.5 7.0 0.09 0.41 0.17 95 1009.7